Skip Page Navigation
NASA JPL Caltech
NASA Logo - Jet Propulsion Laboratory + View the NASA Portal
+ Center for Near-Earth Object Studies
JPL Home Earth Solar System Stars & Galaxies Technology
JPL Solar System Dynamics
BODIES ORBITS EPHEMERIDES TOOLS PHYSICAL DATA DISCOVERY FAQ SITE MAP
IMPORTANT: The SSD Announcement email list is now available. Major changes are coming in the near future, including possible hostname and/or URL changes. To be notified of such changes, subscribe to this email list.

Please visit this page for more details.


JPL Small-Body Database Browser
Search: [ help ]  
37370 (2001 VM9)
Classification: Main-belt Asteroid          SPK-ID: 2037370
Ephemeris | Orbit Diagram | Orbital Elements | Mission Design | Physical Parameters | Discovery Circumstances ]

[ show orbit diagram ]
Orbital Elements at Epoch 2459000.5 (2020-May-31.0) TDB
Reference: JPL 23 (heliocentric ecliptic J2000)
 Element Value Uncertainty (1-sigma)   Units 
e .1638756389154373 3.6399e-08  
a 2.807232381073099 1.2546e-08 au
q 2.347195381040641 1.0526e-07 au
i 2.030057827262691 4.0843e-06 deg
node 258.2649014439564 0.00011111 deg
peri 131.2517788086296 0.00011185 deg
M 4.93601363217277 1.2436e-05 deg
tp 2458976.944635785889
(2020-May-07.44463579)
5.9303e-05 TDB
period 1717.97157564719
4.70
1.1516e-05
3.153e-08
d
yr
n .2095494507028626 1.4047e-09 deg/d
Q 3.267269381105557 1.4601e-08 au
  Orbit Determination Parameters
   # obs. used (total)      1569  
   data-arc span      13541 days (37.07 yr)  
   first obs. used      1982-11-09  
   last obs. used      2019-12-06  
   planetary ephem.      DE431  
   SB-pert. ephem.      SB431-N16  
   condition code      0  
   norm. resid. RMS      .55794  
   source      ORB  
   producer      Otto Matic  
   solution date      2019-Dec-14 03:00:13  

Additional Information
 Earth MOID = 1.35304 au 
 Jupiter MOID = 2.18047 au 
 T_jup = 3.302 
[ show covariance matrix ]

Ephemeris | Orbit Diagram | Orbital Elements | Mission Design | Physical Parameters | Discovery Circumstances ]

Physical Parameter Table
Parameter Symbol Value Units Sigma Reference Notes
absolute magnitude H 14.1   n/a MPO351092  
diameter diameter 3.645 km 0.196 urn:nasa:pds:neowise_diameters_albedos::2.0[mainbelt] (http://adsabs.harvard.edu/abs/2011ApJ...741...68M)  
geometric albedo albedo 0.440   0.044 urn:nasa:pds:neowise_diameters_albedos::2.0[mainbelt] (http://adsabs.harvard.edu/abs/2011ApJ...741...68M)  

37370 (2001 VM9)          Discovered 2001-Nov-09 by LINEAR at Socorro
Reference: 20020227/Numbers.arcLast Updated: 2004-04-19

Alternate Designations
 2001 VM9 = 1982 VC7 
Ephemeris | Orbit Diagram | Orbital Elements | Mission Design | Physical Parameters | Discovery Circumstances ]
ABOUT SSD CREDITS/AWARDS PRIVACY/COPYRIGHT GLOSSARY LINKS
FirstGov 2020-Apr-03 05:51 UT
(server date/time)  
NASA Home Page
Site Manager:   Ryan S. Park
Webmaster  Alan B. Chamberlin